SCP
0 0 0 0 0 0 0 0 0 0 0 0 0 0 0 0 0 0 0 0 0 0 0 0 0 0 0 0 0 0 0 0 0 0 0 0 0 0 0 0 0 0 0 0
0 0 0 0 0 0 0 0 0 0 0 0 0 0 0 0 0 0 0 0 0 0 0 0 0 0 0 0 0 0 0 0 0 0 0 0 0 0 0 0 0 0 0 0
0 0 0 0 0 0 0 0 0 0 0 0 0 0 0 0 0 0 0 0 0 0 0 0 0 0 0 0 0 0 0 0 0 0 0 0 0 0 0 0 0 0 0 0
0 0 0 0 0 0 0 0 0 0 0 0 0 -0 0 0 0 0 0 0 0 0 0 0 0 0 0 0 0 0 0 0 0 0 0 0 0 0 0 0 0 0 0 0
0 0 0 0 0 0 0 0 0 0 0 0 0 0 0 0 0 0 0 0 0 0 0 0 0 0 0 0 0 0 0 0 0 0 0 0 0 0 0 0 0 0 0 0
0 0 0 0 0 0 0 0 0 0 0 0 0 0 0 0 0 0 0 0 0 0 0 0 0 0 0 0 0 0 0 0 0 0 0 0 0 0 0 0 0 0 0 0
0 0 0 0 0 0 0 0 0 0 0 0 0 0 0 0 0 0 0 0 0 0 0 0 0 0 0 0 0 0 0 0 0 0 0 0 0 0 0 0 0 0 0 0
0 0 0 0 0 0 0 0 0 0 0 0 0 0 0 0 0 0 0 0 0 0 0 0 0 0 0 0 0 0 0 0 0 0 0 0 0 0 0 0 0 0 0 0
0 0 0 0 0 0 0 0 0 0 0 0 0 0 0 0 0 0 0 0 0 0 0 0 0 0 0 0 0 0 0 0 0 0 0 0 0 0 0 0 0 0 0 0
0 0 0 0 0 0 0 0 0 0 0 0 0 0 0 0 0 0 0 0 0 0 0 0 0 0 0 0 0 0 0 0 0 0 0 0 0 0 0 0 0 0 0 0
0 0 0 0 0 0 0 0 0 0 0 0 0 0 0 0 0 0 0 0 0 0 0 0 0 0 0 0 0 0 0 0 0 0 0 0 0 0 0 0 0 0 0 0
0 0 0 0 0 0 0 0 0 0 0 0 0 0 0 0 0 0 -0 0 0 0 0 0 0 0 0 0 0 0 0 0 0 0 0 0 0 0 0 0 0 0 0 0
0 0 0 0 0 0 0 0 0 0 0 0 0 0 0 0 0 0 0 0 0 0 0 0 0 0 0 0 0 0 0 0 0 0 0 0 0 0 0 0 0 0 0 0
0 0 0 0 0 0 0 0 0 0 0 0 0 0 0 0 0 0 0 0 0 0 0 0 0 0 0 0 0 0 0 0 0 0 0 0 0 0 0 0 0 0 0 0
0 0 0 0 0 0 0 0 0 0 0 0 0 0 0 0 0 0 0 0 0 0 0 0 0 0 0 0 0 0 0 0 0 0 0 0 0 0 0 0 0 0 0 0
0 0 0 0 0 0 0 0 0 0 0 0 0 0 0 0 0 0 0 0 0 0 0 0 0 0 0 0 0 0 0 0 0 0 0 0 0 0 0 0 0 0 0 0
0 0 0 0 0 0 0 0 0 0 0 0 0 0 0 0 0 0 0 0 0 0 0 0 0 0 0 0 0 0 0 0 0 0 0 0 0 0 0 0 0 0 0 0
0 0 0 0 0 0 0 0 0 0 0 0 0 0 0 0 0 0 0 0 0 0 0 0 0 0 0 0 0 0 0 0 0 0 0 0 0 0 0 0 0 0 0 0
0 0 0 0 0 0 0 0 0 0 0 0 0 0 0 0 0 0 0 0 0 0 0 0 0 0 0 0 0 0 0 0 0 0 0 0 0 0 0 0 0 0 0 0
-0 0 0 0 0 0 0 0 0 0 0 0 0 0 0 0 0 0 0 0 0 0 0 0 0 0 0 0 0 0 0 0 0 0 0 0 0 0 0 0 0 0 0 0
0 0 0 0 0 0 0 0 0 0 0 0 0 0 0 0 0 0 0 0 0 0 0 0 0 0 0 0 0 0 0 0 0 0 0 0 0 0 0 0 0 0 0 0
0 0 0 0 0 0 0 0 0 0 0 -0 -0 -0 0 0 0 0 0 0 0 0 0 0 0 0 0 0 0 0 0 0 0 0 0 0 0 0 0 0 0 0 0 0
0 0 0 0 0 0 0 0 0 -0 0 -0 -0 -0 -0 -0 -0 0 0 0 0 0 0 0 0 0 0 0 0 0 0 0 0 0 0 0 0 0 0 0 0 0 0 0
-0 -0 -0 -0 -0 -0 -0 -0 -0 -0 -0 -0 -0 -0 -0 -0 -0 -0 -0 -0 -0 -0 -0 -0 0 0 0 0 0 0 0 0 0 0 0 0 0 0 0 0 0 0 0 0
0 0 0 0 -0 -0 -0 -0 -0 -0 -0 -0 -0 -0 -0 -0 -0 -0 -0 -0 -0 -0 -0 -0 -0 0 0 0 0 0 0 0 0 0 0 0 0 0 0 0 0 0 0 0
0 0 0 0 0 0 0 -0 -0 -0 -0 -0 -0 -0 -0 -0 -0 -0 -0 -0 -0 -0 -0 -0 -0 0 0 0 0 0 0 0 0 0 0 0 0 0 0 0 0 0 0 0
Wind_Speed_500mb
18 9 21 47 32 18 9 13 14 31 18 14 31 36 40 52 47 53 75 84 84 92 99 91 83 81 83 83 83 88 86 81 77 78 81 82 83 77 75 69 65 61 55 50
7 25 36 12 14 25 22 31 27 24 25 19 24 38 36 21 38 56 59 77 91 101 97 84 74 74 89 90 90 88 86 81 81 80 81 83 81 76 71 67 67 63 59 55
36 16 34 27 24 19 36 25 40 35 21 11 19 25 25 23 46 57 76 91 97 96 88 76 65 72 86 97 95 90 85 80 83 81 81 83 75 71 75 79 77 72 66 62
21 30 26 14 15 28 45 21 22 16 6 28 11 40 18 15 29 26 59 81 92 86 79 70 65 72 86 98 94 88 80 78 82 83 83 86 88 87 90 87 81 74 71 67
19 6 16 28 47 19 45 12 17 5 10 11 10 15 8 18 19 22 32 71 91 88 81 62 62 68 77 95 93 85 76 79 84 84 83 86 91 89 86 81 77 74 71 68
22 2 8 14 3 12 5 2 1 4 4 26 18 21 9 13 22 13 30 64 81 75 73 49 55 65 77 91 88 82 81 85 86 85 83 85 88 90 85 83 81 78 75 72
7 28 18 12 8 4 6 9 8 8 1 25 23 22 46 14 12 22 28 61 71 71 52 36 46 71 74 86 87 85 86 90 90 89 88 85 85 88 84 82 85 84 81 79
7 29 22 16 40 20 20 27 12 15 16 36 9 17 12 25 31 55 70 70 66 56 34 40 54 58 65 76 83 86 90 91 93 92 93 90 87 87 83 83 88 89 85 78
11 21 2 6 3 19 8 13 26 5 4 5 22 28 18 9 19 19 42 48 48 52 48 49 52 51 54 67 78 83 85 88 94 96 96 95 95 93 87 83 88 87 83 75
14 23 15 3 3 3 11 1 4 4 7 16 32 27 35 29 36 34 17 27 55 47 48 46 47 47 52 62 68 74 80 84 90 94 100 99 96 94 92 88 87 86 83 82
10 11 38 8 14 17 1 9 10 4 9 31 38 35 8 21 18 17 18 44 44 41 42 43 40 43 50 59 66 68 77 82 88 94 98 103 99 100 100 94 89 86 85 86
8 5 7 26 15 14 11 22 28 20 25 11 18 29 56 31 15 14 11 22 35 35 30 27 31 38 46 55 64 69 76 84 83 91 99 102 106 104 101 99 93 87 84 84
14 8 9 8 29 10 12 16 15 15 3 29 34 36 51 34 28 15 22 36 21 27 32 42 37 48 63 73 76 75 80 81 84 91 97 101 103 103 102 100 96 86 81 83
32 18 23 31 32 15 23 24 14 21 25 46 42 58 59 64 58 55 68 81 95 84 83 59 58 70 73 74 77 79 79 76 85 91 95 99 99 99 100 100 95 85 80 83
20 23 37 55 65 63 60 64 64 50 53 47 56 41 52 67 48 53 74 74 60 63 51 48 52 59 75 83 84 87 89 88 89 94 96 97 94 96 97 98 93 82 76 80
20 34 36 41 46 57 64 65 64 62 61 51 58 62 75 79 100 81 99 87 55 64 72 84 78 77 84 83 86 86 89 90 91 94 95 93 93 94 94 93 88 82 78 79
34 20 33 58 44 47 43 65 69 70 57 50 54 67 71 66 58 63 83 64 59 74 78 79 84 85 84 76 76 80 76 80 87 90 92 92 90 91 91 89 86 85 82 82
41 38 26 38 33 46 44 43 62 69 70 66 63 62 59 61 82 80 76 77 76 71 69 67 67 78 87 73 68 67 66 69 77 83 83 84 86 89 88 87 85 84 84 84
40 31 20 19 30 39 15 34 45 47 66 62 59 53 56 74 75 70 44 44 55 60 68 73 74 71 62 54 52 56 58 62 67 73 77 81 84 89 87 87 87 84 83 84
26 34 28 31 34 33 9 33 52 43 35 30 31 35 27 25 12 12 57 59 67 65 61 52 40 36 37 44 44 48 56 59 61 66 74 78 81 85 84 85 84 77 78 80
21 20 37 39 41 28 22 30 37 10 6 20 31 26 30 13 20 46 80 85 78 80 78 71 67 65 54 41 38 36 46 56 57 62 67 74 80 82 82 81 83 80 84 84
22 10 23 19 35 41 60 10 26 22 12 34 46 36 33 43 51 59 71 84 97 96 92 83 81 80 68 61 44 37 39 48 57 58 63 71 76 79 82 82 84 83 89 89
15 8 10 9 16 44 34 47 76 49 39 36 48 58 55 54 55 60 65 70 77 72 72 76 76 73 70 66 49 40 47 45 56 60 65 67 72 77 82 84 87 92 94 87
13 24 15 30 12 52 68 53 42 51 46 57 55 65 59 56 60 67 64 67 72 76 71 71 72 62 55 57 57 53 60 64 60 64 68 71 74 81 85 86 87 95 97 92
20 28 16 34 33 47 47 52 47 59 52 52 70 76 66 57 62 63 68 69 71 75 77 70 69 76 73 68 74 72 70 80 74 73 72 74 78 83 86 92 97 102 91 81
28 30 24 33 47 27 54 60 49 38 57 65 58 68 79 68 69 72 73 75 72 71 68 67 78 77 92 79 83 81 82 78 83 82 81 84 87 88 93 100 103 97 87 83
Wind_Direction_500mb
201 155 204 223 206 234 222 258 252 266 260 188 233 241 252 256 257 249 256 259 261 263 270 268 263 256 245 236 233 232 230 227 227 226 223 224 227 227 232 234 235 236 237 237
251 221 226 244 206 232 245 257 262 271 260 189 249 245 257 242 248 248 246 254 259 265 267 268 261 252 235 234 231 229 231 230 229 230 229 228 232 231 237 239 238 238 237 238
222 219 219 224 239 262 248 252 261 262 292 248 286 271 241 242 242 250 256 260 263 262 264 262 252 245 233 226 227 229 230 231 231 230 228 228 228 232 233 234 235 236 235 237
245 237 232 193 216 206 258 219 248 254 255 272 144 291 220 245 242 238 247 254 260 262 261 263 249 237 230 228 226 229 231 233 230 229 227 228 229 229 234 236 238 238 237 237
239 221 207 234 237 201 263 224 241 211 236 318 194 277 178 197 241 244 243 248 257 267 269 258 240 237 231 224 224 228 231 230 229 229 229 230 233 235 241 240 240 237 237 236
246 232 240 213 149 196 167 140 184 53 81 264 180 205 189 189 215 230 242 253 263 262 264 251 242 228 224 220 223 226 228 227 227 228 230 231 233 235 236 237 236 236 235 235
310 230 220 161 192 274 169 88 300 310 3 256 180 218 250 287 255 212 227 243 247 244 257 237 226 214 219 221 221 225 225 225 226 228 230 231 234 237 237 240 240 237 235 234
241 284 164 185 206 194 200 202 182 214 254 275 133 246 252 215 237 240 242 243 237 243 231 224 228 219 222 223 224 223 223 225 228 229 231 232 234 239 239 239 241 241 240 240
215 263 289 156 145 160 182 171 217 325 85 356 268 271 290 283 267 259 240 238 237 236 226 221 225 227 227 224 225 225 226 229 230 231 231 234 236 239 240 241 243 242 241 239
232 265 226 170 165 344 184 224 104 212 204 246 268 271 274 284 271 256 274 230 244 231 215 220 226 232 233 235 231 229 232 235 236 235 235 236 237 240 241 243 244 243 240 236
8 292 273 109 194 182 129 259 246 295 203 250 261 271 219 254 249 253 245 245 230 220 226 233 237 243 243 240 236 233 235 238 239 238 239 239 239 239 240 242 244 243 240 237
145 201 257 275 278 234 258 236 232 239 255 237 271 264 262 273 280 261 333 285 260 239 224 243 263 253 254 247 242 240 241 242 245 243 241 241 241 241 241 243 243 242 239 237
152 210 234 264 289 248 211 200 217 243 247 245 257 262 269 283 281 285 293 262 248 256 277 282 266 267 268 259 249 247 248 251 250 246 244 241 243 243 243 242 242 239 237 235
168 196 207 241 244 271 266 272 251 238 252 254 245 260 271 269 265 274 274 261 265 274 280 274 272 265 260 258 258 258 254 257 254 250 246 244 243 244 243 243 241 236 235 234
192 237 226 235 242 245 246 254 256 251 245 245 253 247 257 264 275 270 272 267 265 268 271 263 259 265 273 268 264 262 255 255 255 251 247 245 245 243 242 242 239 235 233 232
208 243 242 238 229 234 244 252 255 255 254 253 253 262 260 262 263 265 268 269 274 266 265 269 267 273 273 267 266 267 263 260 255 248 248 246 243 242 241 239 236 233 230 229
235 225 231 250 231 236 243 235 239 247 247 243 246 241 250 261 260 263 274 287 270 265 262 264 271 276 277 274 268 260 260 260 255 248 244 243 241 241 239 236 231 229 228 226
269 261 243 245 248 240 238 225 228 239 247 254 250 256 252 254 262 265 271 275 284 280 274 272 277 282 287 287 275 268 254 250 246 242 241 241 240 238 235 232 228 226 225 223
228 242 260 263 250 255 247 220 231 235 249 254 266 263 257 265 265 274 303 337 331 311 296 289 288 292 297 295 280 261 247 239 240 243 241 239 238 235 231 228 226 224 221 219
248 242 254 270 275 267 80 353 327 271 259 7 12 20 4 343 251 286 8 357 351 360 7 359 348 337 322 310 292 263 250 241 240 243 240 238 236 234 231 229 224 222 222 220
294 289 264 256 261 261 9 338 309 233 29 2 348 357 345 1 0 331 327 329 331 333 335 335 336 338 338 334 310 279 264 255 247 244 241 237 234 232 228 227 220 217 214 213
286 293 283 287 274 267 357 6 345 348 307 1 327 340 333 316 312 317 313 313 319 319 321 321 320 319 319 313 315 297 282 271 259 251 244 238 232 229 225 222 220 213 210 209
292 4 321 305 311 314 321 310 307 309 319 322 322 324 313 305 313 309 306 305 308 308 311 311 308 314 310 305 299 294 301 288 273 260 250 242 236 231 226 220 217 210 206 207
285 294 294 312 295 301 302 321 325 332 336 333 329 321 321 321 319 310 309 305 307 309 310 309 307 300 295 299 297 293 285 280 272 261 255 248 237 230 223 219 216 212 207 203
266 297 285 288 286 299 301 315 326 326 323 325 317 318 316 314 307 302 302 297 295 297 299 298 296 292 288 288 286 281 281 281 266 254 250 248 240 233 224 220 212 208 211 210
258 262 270 279 291 306 301 315 321 310 319 321 322 314 312 309 303 305 300 303 299 294 294 292 288 285 284 283 284 281 277 269 264 254 247 241 234 229 223 216 206 206 205 211
Wind_Speed_850mb
18 9 21 47 32 18 9 13 14 31 18 14 31 36 40 52 47 53 75 84 84 92 99 91 83 81 83 83 83 88 86 81 77 78 81 82 83 77 75 69 65 61 55 50
7 25 36 12 14 25 22 31 27 24 25 19 24 38 36 21 38 56 59 77 91 101 97 84 74 74 89 90 90 88 86 81 81 80 81 83 81 76 71 67 67 63 59 55
36 16 34 27 24 19 36 25 40 35 21 11 19 25 25 23 46 57 76 91 97 96 88 76 65 72 86 97 95 90 85 80 83 81 81 83 75 71 75 79 77 72 66 62
21 30 26 14 15 28 45 21 22 16 6 28 11 40 18 15 29 26 59 81 92 86 79 70 65 72 86 98 94 88 80 78 82 83 83 86 88 87 90 87 81 74 71 67
19 6 16 28 47 19 45 12 17 5 10 11 10 15 8 18 19 22 32 71 91 88 81 62 62 68 77 95 93 85 76 79 84 84 83 86 91 89 86 81 77 74 71 68
22 2 8 14 3 12 5 2 1 4 4 26 18 21 9 13 22 13 30 64 81 75 73 49 55 65 77 91 88 82 81 85 86 85 83 85 88 90 85 83 81 78 75 72
7 28 18 12 8 4 6 9 8 8 1 25 23 22 46 14 12 22 28 61 71 71 52 36 46 71 74 86 87 85 86 90 90 89 88 85 85 88 84 82 85 84 81 79
7 29 22 16 40 20 20 27 12 15 16 36 9 17 12 25 31 55 70 70 66 56 34 40 54 58 65 76 83 86 90 91 93 92 93 90 87 87 83 83 88 89 85 78
11 21 2 6 3 19 8 13 26 5 4 5 22 28 18 9 19 19 42 48 48 52 48 49 52 51 54 67 78 83 85 88 94 96 96 95 95 93 87 83 88 87 83 75
14 23 15 3 3 3 11 1 4 4 7 16 32 27 35 29 36 34 17 27 55 47 48 46 47 47 52 62 68 74 80 84 90 94 100 99 96 94 92 88 87 86 83 82
10 11 38 8 14 17 1 9 10 4 9 31 38 35 8 21 18 17 18 44 44 41 42 43 40 43 50 59 66 68 77 82 88 94 98 103 99 100 100 94 89 86 85 86
8 5 7 26 15 14 11 22 28 20 25 11 18 29 56 31 15 14 11 22 35 35 30 27 31 38 46 55 64 69 76 84 83 91 99 102 106 104 101 99 93 87 84 84
14 8 9 8 29 10 12 16 15 15 3 29 34 36 51 34 28 15 22 36 21 27 32 42 37 48 63 73 76 75 80 81 84 91 97 101 103 103 102 100 96 86 81 83
32 18 23 31 32 15 23 24 14 21 25 46 42 58 59 64 58 55 68 81 95 84 83 59 58 70 73 74 77 79 79 76 85 91 95 99 99 99 100 100 95 85 80 83
20 23 37 55 65 63 60 64 64 50 53 47 56 41 52 67 48 53 74 74 60 63 51 48 52 59 75 83 84 87 89 88 89 94 96 97 94 96 97 98 93 82 76 80
20 34 36 41 46 57 64 65 64 62 61 51 58 62 75 79 100 81 99 87 55 64 72 84 78 77 84 83 86 86 89 90 91 94 95 93 93 94 94 93 88 82 78 79
34 20 33 58 44 47 43 65 69 70 57 50 54 67 71 66 58 63 83 64 59 74 78 79 84 85 84 76 76 80 76 80 87 90 92 92 90 91 91 89 86 85 82 82
41 38 26 38 33 46 44 43 62 69 70 66 63 62 59 61 82 80 76 77 76 71 69 67 67 78 87 73 68 67 66 69 77 83 83 84 86 89 88 87 85 84 84 84
40 31 20 19 30 39 15 34 45 47 66 62 59 53 56 74 75 70 44 44 55 60 68 73 74 71 62 54 52 56 58 62 67 73 77 81 84 89 87 87 87 84 83 84
26 34 28 31 34 33 9 33 52 43 35 30 31 35 27 25 12 12 57 59 67 65 61 52 40 36 37 44 44 48 56 59 61 66 74 78 81 85 84 85 84 77 78 80
21 20 37 39 41 28 22 30 37 10 6 20 31 26 30 13 20 46 80 85 78 80 78 71 67 65 54 41 38 36 46 56 57 62 67 74 80 82 82 81 83 80 84 84
22 10 23 19 35 41 60 10 26 22 12 34 46 36 33 43 51 59 71 84 97 96 92 83 81 80 68 61 44 37 39 48 57 58 63 71 76 79 82 82 84 83 89 89
15 8 10 9 16 44 34 47 76 49 39 36 48 58 55 54 55 60 65 70 77 72 72 76 76 73 70 66 49 40 47 45 56 60 65 67 72 77 82 84 87 92 94 87
13 24 15 30 12 52 68 53 42 51 46 57 55 65 59 56 60 67 64 67 72 76 71 71 72 62 55 57 57 53 60 64 60 64 68 71 74 81 85 86 87 95 97 92
20 28 16 34 33 47 47 52 47 59 52 52 70 76 66 57 62 63 68 69 71 75 77 70 69 76 73 68 74 72 70 80 74 73 72 74 78 83 86 92 97 102 91 81
28 30 24 33 47 27 54 60 49 38 57 65 58 68 79 68 69 72 73 75 72 71 68 67 78 77 92 79 83 81 82 78 83 82 81 84 87 88 93 100 103 97 87 83
Wind_Direction_850mb
201 155 204 223 206 234 222 258 252 266 260 188 233 241 252 256 257 249 256 259 261 263 270 268 263 256 245 236 233 232 230 227 227 226 223 224 227 227 232 234 235 236 237 237
251 221 226 244 206 232 245 257 262 271 260 189 249 245 257 242 248 248 246 254 259 265 267 268 261 252 235 234 231 229 231 230 229 230 229 228 232 231 237 239 238 238 237 238
222 219 219 224 239 262 248 252 261 262 292 248 286 271 241 242 242 250 256 260 263 262 264 262 252 245 233 226 227 229 230 231 231 230 228 228 228 232 233 234 235 236 235 237
245 237 232 193 216 206 258 219 248 254 255 272 144 291 220 245 242 238 247 254 260 262 261 263 249 237 230 228 226 229 231 233 230 229 227 228 229 229 234 236 238 238 237 237
239 221 207 234 237 201 263 224 241 211 236 318 194 277 178 197 241 244 243 248 257 267 269 258 240 237 231 224 224 228 231 230 229 229 229 230 233 235 241 240 240 237 237 236
246 232 240 213 149 196 167 140 184 53 81 264 180 205 189 189 215 230 242 253 263 262 264 251 242 228 224 220 223 226 228 227 227 228 230 231 233 235 236 237 236 236 235 235
310 230 220 161 192 274 169 88 300 310 3 256 180 218 250 287 255 212 227 243 247 244 257 237 226 214 219 221 221 225 225 225 226 228 230 231 234 237 237 240 240 237 235 234
241 284 164 185 206 194 200 202 182 214 254 275 133 246 252 215 237 240 242 243 237 243 231 224 228 219 222 223 224 223 223 225 228 229 231 232 234 239 239 239 241 241 240 240
215 263 289 156 145 160 182 171 217 325 85 356 268 271 290 283 267 259 240 238 237 236 226 221 225 227 227 224 225 225 226 229 230 231 231 234 236 239 240 241 243 242 241 239
232 265 226 170 165 344 184 224 104 212 204 246 268 271 274 284 271 256 274 230 244 231 215 220 226 232 233 235 231 229 232 235 236 235 235 236 237 240 241 243 244 243 240 236
8 292 273 109 194 182 129 259 246 295 203 250 261 271 219 254 249 253 245 245 230 220 226 233 237 243 243 240 236 233 235 238 239 238 239 239 239 239 240 242 244 243 240 237
145 201 257 275 278 234 258 236 232 239 255 237 271 264 262 273 280 261 333 285 260 239 224 243 263 253 254 247 242 240 241 242 245 243 241 241 241 241 241 243 243 242 239 237
152 210 234 264 289 248 211 200 217 243 247 245 257 262 269 283 281 285 293 262 248 256 277 282 266 267 268 259 249 247 248 251 250 246 244 241 243 243 243 242 242 239 237 235
168 196 207 241 244 271 266 272 251 238 252 254 245 260 271 269 265 274 274 261 265 274 280 274 272 265 260 258 258 258 254 257 254 250 246 244 243 244 243 243 241 236 235 234
192 237 226 235 242 245 246 254 256 251 245 245 253 247 257 264 275 270 272 267 265 268 271 263 259 265 273 268 264 262 255 255 255 251 247 245 245 243 242 242 239 235 233 232
208 243 242 238 229 234 244 252 255 255 254 253 253 262 260 262 263 265 268 269 274 266 265 269 267 273 273 267 266 267 263 260 255 248 248 246 243 242 241 239 236 233 230 229
235 225 231 250 231 236 243 235 239 247 247 243 246 241 250 261 260 263 274 287 270 265 262 264 271 276 277 274 268 260 260 260 255 248 244 243 241 241 239 236 231 229 228 226
269 261 243 245 248 240 238 225 228 239 247 254 250 256 252 254 262 265 271 275 284 280 274 272 277 282 287 287 275 268 254 250 246 242 241 241 240 238 235 232 228 226 225 223
228 242 260 263 250 255 247 220 231 235 249 254 266 263 257 265 265 274 303 337 331 311 296 289 288 292 297 295 280 261 247 239 240 243 241 239 238 235 231 228 226 224 221 219
248 242 254 270 275 267 80 353 327 271 259 7 12 20 4 343 251 286 8 357 351 360 7 359 348 337 322 310 292 263 250 241 240 243 240 238 236 234 231 229 224 222 222 220
294 289 264 256 261 261 9 338 309 233 29 2 348 357 345 1 0 331 327 329 331 333 335 335 336 338 338 334 310 279 264 255 247 244 241 237 234 232 228 227 220 217 214 213
286 293 283 287 274 267 357 6 345 348 307 1 327 340 333 316 312 317 313 313 319 319 321 321 320 319 319 313 315 297 282 271 259 251 244 238 232 229 225 222 220 213 210 209
292 4 321 305 311 314 321 310 307 309 319 322 322 324 313 305 313 309 306 305 308 308 311 311 308 314 310 305 299 294 301 288 273 260 250 242 236 231 226 220 217 210 206 207
285 294 294 312 295 301 302 321 325 332 336 333 329 321 321 321 319 310 309 305 307 309 310 309 307 300 295 299 297 293 285 280 272 261 255 248 237 230 223 219 216 212 207 203
266 297 285 288 286 299 301 315 326 326 323 325 317 318 316 314 307 302 302 297 295 297 299 298 296 292 288 288 286 281 281 281 266 254 250 248 240 233 224 220 212 208 211 210
258 262 270 279 291 306 301 315 321 310 319 321 322 314 312 309 303 305 300 303 299 294 294 292 288 285 284 283 284 281 277 269 264 254 247 241 234 229 223 216 206 206 205 211